Location: Unspecified
(0.0000°N, 0.0000°E)
Time: 18:11:10
(UTC+00:00)

GRACE-FO 1 - Visible Passes

Search period start: 13 August 2022 00:00
Search period end: 23 August 2022 00:00
Orbit: 480 x 504 km, 89.0° (Epoch: 13 August)

Date Brightness Start Highest point End Pass type
(mag) Time Alt. Az. Time Alt. Az. Time Alt. Az.
13 Aug 7.4 03:52:52 15° ESE 03:53:44 16° E 03:56:07 10° NE visible
13 Aug 6.5 05:27:28 12° W 05:27:56 12° W 05:29:27 10° WNW visible
14 Aug 5.8 05:06:12 22° W 05:06:12 22° W 05:08:43 10° NW visible
15 Aug 5.6 04:44:53 31° NW 04:44:53 31° NW 04:47:04 10° NNW visible
16 Aug 6.4 04:23:31 23° N 04:23:31 23° N 04:25:00 10° N visible
17 Aug 7.4 04:02:06 13° NNE 04:02:06 13° NNE 04:02:34 10° NNE visible
